Showing default

LEMUR 2 KRISH, 64561

Orbit data source: Space-Track

LEMUR 2 KRISH, 64561 is an American payload satellite in SSO that was launched on Mon, 23 Jun 2025 UTC via an FALCON 9 launch vehicle from the Air Force Western Test Range (AFWTR). Payload-class satellites include a variety of spacecraft equipped with specific instruments for various scientific and technological missions. These include communications satellites like Starlink; space stations such as the ISS; scientific satellites like the Hubble; Earth observation satellites from companies like Planet Labs, Umbra, and HawkEye 360; GPS; miniature CubeSats for education and research; and military/defense satellites.

Loading next visibility...
Identifier
64561, 2025-135AK
Orbit
SSO
Country
Flag of USUS
Related business
Manufacturer
Spire/Glasgow
Mission
Operational Commercial Com/MetRO
Bus & Motor
CUBESAT 6U, Unknown motor
Mass
10 kg wet, 10 kg dry
Launch date (UTC)
2025-06-23 (10 months ago)
Launch vehicle
FALCON 9
Launch site
Air Force Western Test Range (AFWTR)
Object type
Payload
Rocket body
Debris
Shape & HBR
Box, 0.1 m
Radar Cross Section
0.080 m², Small (<0.1 m²)

Expand to show TLE details & history
Last TLE update: 10 hours ago

TLE from 10 hours ago
0 LEMUR 2 KRISH
1 64561U 25135AK  26120.11591753  .00005893  00000-0  53378-3 0  9995
2 64561  97.7677 235.3594 0001219 110.7791 249.3560 14.95751124 46735
Epoch: 2026-04-30T02:46Z
TLE epoch observation values (Epoch: 2026-04-30T02:46:55.274Z)
Latitude
-0.00009°
Longitude
-24.43805°
Altitude
583.388 km
Speed
7.569 km/s
True Right ascension
15h 41m 26s
True Declination
0° 00' 00"
Sunlit
Object was in full shadow at epoch
Visualization orbit readout
Latitude
Unknown
Longitude
Unknown
Altitude
Unknown
Speed
Unknown
Apparent Right ascension
Unknown
Apparent Declination
Unknown
Sunlit
N/A
Visualization observer readout
Local Sidereal Time
19:57:12
Azimuth
Unknown
Elevation
Unknown
Doppler factor
Unknown
Orbital elements
Apogee altitude
577.904 km
Perigee altitude
576.208 km
Semi-major axis
6,955.193 km
Eccentricity
0.00012
Inclination
97.7677°
RAAN
235.3594°
Arg. of periapsis
110.7791°
True anomaly
249.34293°
Mean anomaly
249.356°
Eccentric anomaly
249.34946°
Mean motion
3.74179 °/min
Orbital period
96.21 mins
BSTAR
0.00053378
Loading maneuver chart data...
Computing Atmospheric mass density...
Loading historical data...
Loading historical data...
Loading historical data...
Loading historical data...
Loading historical data...
Loading historical data...
Loading historical data...

Documentation

Showing up to 5 results
|